Location: Ermatingen
(47.6706°N, 9.0857°E)
Time: 09:21:41
(UTC+00:00)

Cosmos 1428 Rocket - Pass Details

Date: 03 December 2021
Orbit: 949 x 987 km, 82.9° (Epoch: 26 January)

Event Time Altitude Azimuth Distance (km) Brightness Sun altitude
Rises 16:28:45 0° 354° (N) 3,635 7.3 -9.1°
Reaches altitude 10° 16:31:20 10° 359° (N) 2,687 6.6 -9.5°
Maximum altitude 16:37:19 53° 76° (ENE) 1,160 4.6 -10.4°
Drops below altitude 10° 16:43:19 10° 153° (SSE) 2,687 6.7 -11.4°
Sets 16:45:53 0° 158° (SSE) 3,634 7.5 -11.8°
